Wind_Speed
9 6 5 3 4 3 4 11 13 14 13 12 12 12 10 10 10 9 8 10 13 14 14 13 13 13 14 14 14 12 12 11 11 10 11 10 10 9 10 12 13 15 15 15 15 14 11 10 10
6 5 3 1 2 4 4 6 7 9 12 12 9 10 9 10 10 9 7 8 9 10 10 10 10 11 11 11 12 12 12 11 10 8 8 7 5 6 7 8 9 11 12 13 14 13 11 9 8
8 6 2 0 1 2 1 2 3 3 5 7 6 6 8 8 8 9 8 6 5 6 6 5 6 8 8 8 9 9 10 10 8 6 4 3 4 5 5 6 8 10 11 12 12 12 11 9 7
9 8 4 2 2 2 2 5 6 4 2 1 1 1 2 3 3 5 6 6 5 5 2 0 2 4 4 4 5 6 6 6 6 5 4 3 4 4 5 6 7 10 12 12 11 11 10 9 7
10 9 8 7 5 4 5 7 8 7 6 6 8 8 4 4 4 3 3 4 4 3 2 3 3 2 1 2 2 1 1 1 2 3 4 4 3 3 4 5 7 9 12 14 14 13 13 11 9
8 9 11 12 11 8 6 8 9 9 11 12 12 11 8 7 8 6 5 4 5 5 5 6 5 5 6 6 6 6 6 5 2 1 2 1 2 3 4 7 11 11 11 12 13 13 14 14 12
7 8 8 7 6 8 9 9 8 9 13 14 15 10 8 7 9 8 7 7 9 8 8 9 9 10 12 12 12 13 11 9 6 3 2 3 5 6 6 9 10 11 10 10 11 13 14 16 16
10 11 12 10 8 9 9 10 10 9 12 15 16 11 11 10 11 11 9 10 11 10 10 11 12 13 15 15 15 16 14 12 10 8 7 7 7 7 7 6 7 8 10 11 12 13 15 18 18
13 15 17 17 16 15 12 11 10 9 8 11 13 12 12 14 13 12 11 10 11 11 12 14 14 14 16 16 17 17 15 14 14 14 13 13 10 9 9 6 7 8 10 12 13 15 17 19 20
17 18 21 22 23 22 15 10 9 8 7 7 9 8 9 12 13 12 11 11 11 12 13 15 16 17 17 18 18 18 17 17 18 18 19 19 18 15 11 9 9 10 10 11 12 14 15 17 20
21 21 24 27 28 27 21 14 11 9 8 9 10 10 8 10 11 12 14 14 14 14 16 17 19 21 21 21 22 22 24 24 24 24 25 24 22 18 14 13 11 11 10 11 13 13 13 15 18
25 25 27 31 31 27 25 20 17 13 13 15 14 13 14 14 13 14 17 18 16 16 17 19 21 23 26 27 26 27 28 28 26 27 28 25 21 19 18 16 14 12 11 12 15 15 17 19 19
28 30 31 32 31 28 27 26 25 20 20 20 19 20 20 19 19 20 19 17 15 16 19 22 24 24 25 26 26 27 26 24 23 22 21 20 19 18 18 19 16 14 13 14 16 16 19 22 22
32 32 32 31 31 29 30 29 31 26 25 25 24 24 25 26 26 24 20 19 21 21 21 22 24 25 28 32 34 34 33 32 28 26 23 20 20 20 21 21 19 17 16 17 17 18 19 21 23
34 33 32 31 31 33 34 31 31 31 30 29 29 29 30 32 34 30 25 23 26 27 27 28 29 29 31 34 37 38 39 40 38 34 31 28 26 23 22 21 20 19 19 19 19 20 21 21 23
36 36 34 33 34 37 40 38 36 36 35 35 36 36 36 36 37 35 32 29 29 32 35 35 35 35 37 38 38 41 42 44 45 42 38 35 32 26 22 22 21 20 21 21 23 23 24 25 26
34 37 38 35 39 41 43 44 42 41 41 41 42 42 41 39 36 36 35 33 32 32 36 38 40 40 39 40 41 43 46 46 48 48 43 40 35 29 25 23 23 22 24 26 27 27 27 28 30
30 32 33 32 39 40 41 44 44 42 44 44 44 43 41 39 38 37 37 37 37 38 41 41 42 44 46 49 49 50 51 50 51 51 44 41 38 33 27 24 26 27 28 29 30 31 32 32 32
23 24 24 25 31 33 33 35 37 38 38 40 42 41 41 44 42 40 38 39 40 40 43 46 43 43 48 53 52 51 51 53 56 56 48 45 44 38 29 26 29 30 30 31 34 36 37 38 38
24 24 23 22 24 24 24 26 28 28 28 32 36 37 39 41 42 44 46 43 44 44 44 44 41 40 43 47 48 48 50 53 57 60 61 56 48 45 35 30 30 31 32 32 35 38 39 39 40
27 28 29 27 26 27 27 28 29 29 28 29 31 32 33 34 38 43 42 48 44 38 38 38 40 42 42 41 41 41 43 46 50 53 51 47 48 49 38 33 32 31 31 31 34 37 39 37 37
27 29 30 29 29 29 30 31 32 33 34 34 35 36 35 35 37 42 44 44 46 42 38 39 44 45 48 46 39 40 37 44 44 50 53 53 46 38 32 32 31 31 32 32 33 34 35 35 35
26 27 27 28 29 30 31 34 33 35 37 38 40 41 43 44 44 45 46 47 49 49 50 51 53 50 48 51 45 41 42 46 44 46 39 36 26 20 21 27 29 31 31 31 33 35 36 36 35
22 23 23 23 21 22 24 28 30 30 33 38 43 46 48 49 51 50 48 49 51 54 57 60 61 55 49 55 50 46 41 45 38 30 22 19 19 21 24 28 30 30 31 33 35 36 37 36 34
19 20 21 20 17 18 21 22 20 21 25 30 36 41 45 48 50 51 53 54 55 59 62 62 60 55 51 48 49 48 46 41 33 26 21 19 21 26 28 30 31 32 32 34 35 36 34 32 31
16 19 22 22 18 15 16 17 15 19 23 26 29 34 39 42 46 49 53 56 59 60 60 60 56 52 48 41 44 38 33 39 35 26 21 22 23 26 29 32 33 34 34 35 33 30 29 29 30
13 16 18 20 19 18 16 16 19 24 24 24 26 29 32 36 41 45 49 53 56 57 56 55 54 51 48 40 41 40 32 25 26 23 22 25 25 27 30 31 33 35 35 32 28 26 27 27 26
13 15 18 21 23 24 21 18 23 26 24 26 30 32 34 37 40 43 49 54 57 55 53 54 53 47 42 40 45 46 33 26 21 19 23 26 28 32 36 35 32 30 28 26 25 23 23 23 22
17 18 20 22 25 29 28 20 27 28 28 31 34 35 35 35 38 43 46 49 53 49 40 36 36 39 39 33 39 40 34 28 22 21 25 30 32 32 30 30 28 26 25 26 25 24 23 22 22
22 23 25 27 29 30 32 23 29 30 30 32 34 36 36 37 40 43 42 41 38 32 27 25 24 27 29 30 30 33 30 29 25 26 30 32 28 24 25 27 28 27 27 27 27 26 24 24 23
Wind_Direction
154 163 156 124 115 65 96 107 101 107 105 80 72 67 67 70 66 66 73 85 95 102 107 112 107 102 100 98 95 93 89 86 83 77 72 67 58 47 43 41 45 46 43 41 40 41 42 45 49
162 167 163 124 137 35 96 104 104 112 107 97 95 98 87 67 61 62 64 77 91 99 107 114 110 105 102 97 92 87 85 85 91 90 79 66 52 48 50 47 40 37 34 32 33 34 36 39 46
180 168 143 320 158 5 186 182 164 158 111 111 122 129 104 77 66 60 56 53 67 83 98 110 107 107 105 97 95 91 88 87 91 100 83 41 23 28 40 36 22 15 14 16 18 21 24 27 33
199 207 194 217 173 248 261 242 216 224 203 143 267 272 89 65 48 50 52 44 34 44 43 109 105 109 117 120 115 102 93 91 92 99 99 54 31 20 33 29 10 2 357 360 1 1 3 9 17
222 217 205 204 217 238 227 212 205 216 225 232 249 267 289 310 314 328 356 360 350 349 309 266 234 196 226 213 181 149 10 31 78 85 77 69 54 39 37 31 3 355 349 352 355 354 347 347 351
230 226 224 226 238 233 206 205 214 218 226 236 247 260 280 299 300 298 296 283 275 273 266 265 266 266 263 260 268 284 294 287 258 119 66 42 324 326 331 341 336 341 347 354 357 352 348 341 334
248 243 244 252 250 240 230 227 247 263 255 253 254 258 278 294 299 296 283 275 271 265 260 267 274 277 274 272 276 284 292 282 253 233 270 285 287 290 299 325 338 348 350 351 348 341 343 343 338
244 253 261 270 264 252 252 252 267 283 277 272 267 274 283 294 298 298 292 283 283 278 266 257 264 268 269 272 275 279 283 275 255 251 269 278 277 276 285 319 348 356 356 353 345 337 339 339 335
242 254 263 270 267 261 265 269 280 290 291 279 273 272 280 286 290 293 293 290 290 286 277 267 264 267 269 267 267 268 270 264 256 256 265 276 282 277 277 296 324 336 344 351 348 341 338 337 337
238 253 258 265 270 273 272 278 298 305 314 308 282 264 263 275 288 293 292 284 279 281 284 283 282 279 275 270 267 268 267 264 261 260 266 277 287 285 275 279 302 314 329 343 346 351 345 339 341
230 243 250 258 263 271 281 289 287 287 293 302 301 283 275 277 281 288 295 297 298 298 295 291 288 284 279 275 273 272 273 274 274 273 271 274 279 276 265 270 282 289 304 328 339 342 346 342 342
229 238 245 249 258 270 282 288 285 279 276 276 279 282 279 281 284 295 299 298 301 302 297 295 303 303 295 287 282 277 278 279 278 276 274 272 266 261 261 270 274 276 290 313 326 334 343 346 341
231 237 243 250 260 268 275 277 276 275 272 270 271 273 273 278 282 288 294 290 291 293 294 296 303 303 300 295 290 287 283 285 288 283 273 268 263 259 260 266 271 275 284 299 314 326 336 343 344
236 242 248 253 260 265 266 267 271 272 270 271 272 272 272 277 285 291 281 266 280 287 280 279 281 282 284 289 293 290 287 287 283 281 274 266 258 252 255 261 263 270 281 293 305 314 322 330 334
237 239 246 250 254 256 257 258 264 267 267 267 267 269 273 277 281 284 280 272 274 271 269 269 268 269 272 281 288 291 289 291 285 275 268 262 258 255 254 258 264 271 280 287 294 303 311 317 322
236 236 236 237 241 246 251 253 254 257 258 260 263 265 266 269 273 277 279 276 270 263 261 262 257 262 264 265 270 278 285 287 287 281 272 265 262 262 262 264 268 278 284 287 292 299 305 310 313
239 237 235 233 236 239 246 251 252 256 259 259 262 266 269 269 268 268 269 267 264 262 258 256 256 254 256 260 264 268 273 278 281 282 275 269 266 266 268 269 272 278 285 288 290 295 300 303 305
238 240 241 236 243 244 246 251 255 256 260 263 266 269 269 268 264 260 257 255 254 253 252 253 253 253 253 257 262 265 265 266 270 271 268 267 267 266 265 267 274 280 282 285 289 295 298 300 300
251 251 252 250 252 257 256 256 258 258 259 263 264 262 262 262 264 265 262 257 255 251 250 254 256 254 257 262 265 268 264 260 260 261 262 263 262 263 260 263 272 281 286 289 293 295 297 300 300
256 257 256 255 260 264 269 270 269 268 265 264 267 270 270 269 267 264 260 255 254 249 247 250 253 252 257 261 263 263 261 256 257 257 251 249 253 255 258 266 278 283 285 288 291 293 295 297 298
259 260 260 259 261 266 269 272 274 277 277 272 270 272 273 274 274 275 272 255 255 242 240 245 254 258 261 257 259 265 266 262 265 267 254 242 241 242 248 264 276 281 281 285 288 291 292 294 296
260 261 263 265 263 264 266 267 270 274 277 279 279 279 275 272 272 275 280 279 284 286 279 274 273 273 275 265 256 260 271 274 269 264 258 258 245 240 245 257 266 272 277 282 286 287 289 292 294
257 263 269 272 271 266 264 267 267 266 266 270 274 276 278 278 278 277 277 277 279 280 279 279 281 286 284 275 256 254 268 278 275 263 253 240 245 257 255 257 264 271 278 284 288 290 291 292 293
261 264 268 274 277 275 270 270 271 268 267 267 268 271 273 278 281 281 280 280 281 281 281 282 283 287 285 280 271 270 270 267 263 257 252 260 263 262 261 261 266 272 279 284 287 289 289 291 293
269 271 272 276 278 285 286 283 289 283 277 275 274 276 279 280 281 283 283 283 283 283 284 285 287 284 276 268 269 280 270 267 266 260 257 258 260 264 264 265 267 271 279 286 289 289 287 288 290
293 291 285 284 284 287 294 301 304 296 289 290 290 288 288 288 286 284 282 281 280 281 281 281 281 279 276 268 267 274 259 250 256 259 259 260 262 265 266 267 269 274 280 284 285 286 286 286 286
296 298 299 297 298 298 300 300 298 296 307 310 306 301 298 298 297 293 287 284 282 281 281 279 276 272 270 264 253 258 251 242 247 250 252 256 259 263 267 271 271 273 279 282 281 281 282 282 279
297 298 299 299 302 304 305 303 295 299 313 318 319 318 316 315 311 308 301 295 291 288 284 281 277 268 269 266 255 260 265 254 245 242 248 257 264 269 272 274 278 276 276 279 279 278 278 275 270
296 297 296 296 300 303 304 308 297 307 317 319 320 319 317 316 315 317 315 303 292 286 283 285 280 266 261 263 257 254 256 248 249 254 261 265 271 271 268 271 272 273 279 280 278 278 276 271 265
290 293 295 295 297 298 299 308 300 305 311 314 318 319 318 322 322 322 320 316 299 274 260 265 253 244 241 251 249 251 253 244 249 260 264 265 265 265 266 268 270 273 273 274 275 275 276 274 270
Height
5914 5914 5915 5916 5917 5916 5916 5918 5919 5920 5920 5920 5921 5922 5922 5923 5924 5926 5925 5924 5924 5923 5922 5924 5924 5923 5923 5921 5920 5920 5919 5920 5919 5919 5918 5917 5917 5916 5915 5915 5914 5913 5912 5912 5911 5911 5910 5910 5909
5915 5915 5917 5918 5918 5918 5918 5918 5919 5920 5921 5921 5923 5924 5925 5925 5925 5925 5925 5926 5926 5925 5925 5925 5925 5924 5923 5922 5921 5920 5919 5920 5919 5919 5919 5918 5917 5916 5915 5914 5914 5913 5912 5911 5911 5910 5909 5909 5908
5915 5917 5919 5919 5920 5920 5920 5919 5919 5919 5920 5921 5922 5924 5924 5925 5926 5926 5927 5928 5927 5927 5927 5927 5927 5926 5925 5924 5922 5921 5919 5919 5919 5919 5919 5918 5918 5917 5915 5914 5913 5913 5912 5912 5911 5909 5909 5908 5908
5915 5917 5920 5921 5921 5922 5922 5920 5919 5919 5920 5920 5921 5922 5922 5924 5925 5926 5927 5927 5928 5927 5927 5928 5928 5927 5926 5924 5923 5922 5921 5920 5919 5919 5919 5918 5918 5917 5915 5914 5913 5912 5911 5911 5911 5910 5908 5907 5907
5913 5916 5919 5921 5921 5922 5922 5921 5921 5921 5920 5920 5921 5921 5923 5924 5925 5926 5926 5926 5926 5926 5926 5927 5927 5926 5925 5924 5922 5921 5921 5920 5919 5918 5918 5917 5916 5916 5915 5913 5912 5911 5911 5911 5910 5909 5908 5907 5906
5914 5915 5918 5919 5920 5921 5922 5921 5921 5921 5921 5921 5921 5922 5924 5925 5925 5925 5925 5925 5926 5926 5926 5926 5926 5925 5924 5923 5921 5920 5920 5919 5918 5917 5916 5916 5915 5914 5913 5913 5912 5911 5911 5910 5909 5907 5906 5905 5905
5914 5914 5915 5917 5919 5919 5921 5921 5922 5924 5923 5923 5922 5923 5924 5925 5925 5925 5925 5925 5926 5926 5926 5925 5925 5924 5923 5922 5920 5919 5918 5918 5917 5916 5915 5915 5914 5913 5912 5912 5912 5911 5910 5908 5907 5906 5904 5903 5903
5912 5913 5912 5914 5917 5919 5920 5921 5922 5923 5923 5922 5921 5923 5924 5926 5926 5925 5924 5924 5925 5925 5925 5924 5922 5921 5920 5920 5918 5918 5917 5916 5916 5916 5914 5914 5913 5912 5911 5910 5910 5910 5909 5907 5906 5904 5902 5900 5899
5911 5912 5911 5911 5913 5916 5918 5919 5921 5921 5921 5920 5920 5922 5923 5924 5924 5923 5922 5923 5923 5923 5922 5921 5919 5918 5918 5917 5916 5916 5915 5914 5914 5914 5913 5913 5912 5911 5911 5909 5908 5907 5907 5905 5903 5902 5901 5898 5896
5910 5910 5909 5908 5908 5910 5915 5918 5919 5919 5919 5919 5919 5919 5919 5920 5920 5920 5920 5920 5920 5920 5919 5919 5918 5918 5917 5916 5915 5914 5914 5913 5912 5912 5912 5912 5911 5910 5909 5908 5907 5906 5905 5903 5902 5900 5898 5897 5895
5908 5909 5907 5904 5904 5906 5910 5915 5917 5917 5918 5918 5918 5917 5917 5918 5918 5917 5917 5917 5917 5917 5916 5916 5916 5915 5914 5914 5913 5912 5912 5911 5911 5910 5909 5908 5907 5907 5906 5905 5904 5903 5902 5901 5900 5898 5896 5894 5893
5904 5905 5904 5902 5901 5905 5907 5910 5911 5913 5916 5916 5916 5915 5915 5915 5916 5916 5915 5914 5915 5914 5914 5913 5912 5912 5912 5911 5910 5910 5910 5909 5908 5907 5906 5905 5904 5903 5903 5902 5900 5898 5897 5896 5896 5895 5894 5891 5889
5900 5899 5900 5900 5902 5904 5904 5904 5905 5909 5910 5911 5912 5912 5912 5912 5912 5912 5912 5911 5911 5911 5911 5910 5908 5907 5907 5906 5906 5906 5907 5907 5906 5905 5903 5902 5901 5899 5898 5897 5897 5895 5894 5892 5892 5892 5890 5888 5886
5895 5896 5898 5898 5899 5901 5900 5899 5898 5902 5904 5904 5906 5908 5908 5908 5907 5907 5907 5906 5905 5905 5905 5905 5903 5902 5901 5900 5900 5901 5901 5901 5900 5900 5899 5898 5896 5894 5893 5893 5892 5891 5890 5889 5888 5887 5886 5884 5882
5889 5891 5892 5893 5893 5892 5893 5896 5895 5896 5896 5897 5899 5901 5902 5903 5902 5901 5901 5900 5901 5900 5899 5898 5897 5896 5895 5893 5892 5893 5893 5893 5893 5893 5893 5892 5891 5889 5888 5887 5887 5886 5885 5885 5884 5883 5881 5879 5879
5881 5884 5885 5885 5885 5885 5887 5887 5890 5889 5890 5890 5891 5893 5895 5897 5897 5895 5894 5893 5893 5893 5892 5890 5890 5889 5887 5886 5884 5884 5884 5884 5884 5883 5884 5884 5884 5884 5882 5882 5882 5882 5880 5879 5878 5878 5877 5874 5873
5874 5875 5876 5877 5876 5877 5879 5880 5883 5883 5884 5884 5885 5886 5887 5888 5889 5887 5885 5883 5883 5884 5884 5882 5882 5881 5878 5876 5875 5874 5875 5877 5876 5874 5875 5875 5876 5875 5876 5875 5875 5874 5873 5873 5872 5872 5871 5869 5867
5865 5867 5870 5872 5869 5872 5874 5875 5875 5878 5878 5878 5879 5880 5879 5878 5875 5871 5870 5870 5871 5872 5870 5869 5869 5870 5867 5866 5864 5862 5863 5866 5866 5864 5865 5865 5865 5866 5867 5867 5865 5865 5865 5864 5864 5864 5863 5861 5859
5862 5863 5865 5866 5865 5866 5868 5870 5869 5871 5871 5870 5869 5867 5865 5862 5862 5861 5861 5858 5858 5857 5857 5857 5858 5858 5857 5855 5854 5851 5850 5851 5851 5852 5854 5855 5855 5856 5858 5858 5857 5857 5856 5854 5853 5853 5853 5852 5850
5857 5858 5859 5860 5859 5860 5861 5862 5862 5863 5864 5863 5861 5861 5859 5857 5854 5850 5848 5844 5843 5844 5846 5847 5848 5848 5848 5846 5842 5839 5837 5837 5836 5836 5837 5840 5841 5843 5846 5849 5848 5848 5847 5846 5845 5844 5845 5845 5842
5851 5851 5852 5854 5854 5854 5855 5855 5855 5854 5855 5854 5853 5852 5850 5848 5845 5840 5839 5836 5832 5834 5836 5837 5839 5842 5842 5839 5834 5829 5828 5829 5825 5824 5827 5826 5825 5829 5833 5837 5837 5837 5838 5837 5836 5836 5837 5836 5833
5845 5844 5846 5847 5848 5848 5848 5847 5848 5847 5845 5844 5843 5841 5840 5839 5837 5831 5827 5826 5823 5823 5826 5827 5828 5830 5831 5826 5827 5827 5821 5816 5811 5812 5815 5817 5817 5819 5822 5825 5828 5830 5830 5829 5829 5828 5827 5826 5825
5840 5840 5841 5840 5840 5841 5841 5840 5841 5840 5837 5836 5834 5831 5829 5828 5828 5826 5823 5820 5817 5816 5817 5818 5818 5822 5821 5817 5813 5814 5806 5803 5801 5802 5805 5808 5809 5811 5815 5818 5820 5821 5821 5821 5820 5820 5818 5816 5815
5836 5836 5836 5835 5834 5834 5833 5833 5833 5832 5831 5829 5826 5823 5821 5819 5817 5816 5816 5814 5811 5808 5807 5807 5805 5808 5808 5808 5804 5800 5799 5792 5792 5792 5797 5799 5800 5803 5807 5809 5810 5811 5812 5812 5812 5810 5808 5806 5805
5832 5833 5832 5831 5831 5830 5829 5828 5829 5826 5824 5821 5818 5816 5812 5810 5807 5805 5804 5803 5801 5798 5795 5793 5793 5795 5795 5795 5794 5790 5788 5782 5783 5784 5787 5789 5791 5795 5798 5799 5800 5802 5803 5803 5802 5800 5799 5798 5796
5829 5828 5827 5826 5826 5826 5824 5823 5823 5819 5817 5816 5813 5809 5805 5801 5798 5795 5792 5789 5787 5785 5782 5779 5778 5779 5778 5779 5780 5779 5775 5775 5775 5775 5777 5780 5783 5785 5788 5791 5792 5794 5794 5794 5793 5790 5790 5790 5789
5826 5825 5823 5821 5820 5819 5820 5820 5817 5813 5812 5810 5805 5801 5796 5791 5787 5782 5778 5773 5770 5768 5765 5764 5764 5765 5765 5767 5768 5768 5769 5766 5766 5768 5772 5774 5776 5778 5781 5783 5785 5785 5785 5784 5783 5782 5782 5782 5782
5824 5822 5820 5816 5813 5812 5814 5814 5811 5808 5806 5801 5796 5791 5786 5781 5776 5771 5765 5758 5753 5752 5750 5748 5747 5749 5751 5754 5754 5757 5759 5761 5762 5763 5766 5769 5769 5770 5774 5775 5775 5776 5776 5775 5775 5775 5775 5775 5775
5820 5818 5815 5812 5809 5805 5803 5810 5802 5800 5796 5792 5788 5783 5779 5773 5767 5760 5752 5744 5738 5737 5739 5738 5736 5737 5740 5743 5743 5747 5752 5754 5756 5757 5759 5761 5761 5762 5765 5767 5768 5769 5768 5768 5767 5767 5767 5767 5767
5814 5812 5809 5807 5803 5800 5796 5803 5795 5792 5789 5785 5782 5776 5769 5763 5757 5749 5741 5733 5726 5727 5732 5733 5731 5730 5733 5733 5736 5737 5742 5746 5748 5750 5751 5753 5754 5755 5757 5758 5760 5761 5761 5761 5761 5760 5760 5760 5759